Portsmouth, NH

11:06 AM EST on November 15, 2019 (GMT -0500)
Pease International Tradeport

Weather History for KPSM - October, 2019

Change the Weather History Date:

Tuesday, October 22, 2019

  Actual Average Record
Temperature  
Mean Temperature 50 °F -  
Max Temperature 57 °F 55 °F 86 °F (1979)
Min Temperature 42 °F 38 °F 23 °F (1983)
Degree Days  
Heating Degree Days 16    
Moisture  
Dew Point 48 °F    
Average Humidity 90    
Maximum Humidity 100    
Minimum Humidity 75    
Precipitation  
Precipitation 0.41 in - - ()
Sea Level Pressure  
Sea Level Pressure 30.10 in    
Wind  
Wind Speed 5 mph ()    
Max Wind Speed 16 mph    
Max Gust Speed 21 mph    
Visibility 7.0 miles    
Events Fog , Rain    
Averages and records for this station are not official NWS values.
T = Trace of Precipitation, MM = Missing Value Source: Averaged Metar Reports

Daily Weather History Graph

Daily Weather History Graph

Search for Another Location

Airport or City:

Astronomy

Oct. 22, 2019 Rise Set
Actual Time 7:05 AM EDT 5:49 PM EDT
Civil Twilight 6:36 AM EDT 6:18 PM EDT
Nautical Twilight 6:02 AM EDT 6:51 PM EDT
Astronomical Twilight 5:30 AM EDT 7:24 PM EDT
Moon No Moon Rise 3:08 PM EDT (10/22)
Length of Visible Light 11h 42m
Length of Day
10h 44m
Last Quarter, 37% of the Moon is Illuminated
Oct 22
Last Quarter
Oct 27
New
Nov 4
First Quarter
Nov 12
Full
Nov 19
Last Quarter

Hourly Weather History & Observations

Time (EDT) Temp. Windchill Dew Point Humidity Pressure Visibility Wind Dir Wind Speed Gust Speed Precip Events Conditions
12:11 AM 44.6 °F - 44.6 °F 100% 30.16 in 2.0 mi Calm Calm - N/A Fog Patches of Fog
12:16 AM 44.6 °F - 44.6 °F 100% 30.16 in 2.0 mi Calm Calm - N/A   Clear
12:21 AM 44.6 °F - 42.8 °F 93% 30.17 in 7.0 mi Calm Calm - N/A Fog Patches of Fog
12:56 AM 42.6 °F 39.9 °F 42.1 °F 98% 30.16 in 10.0 mi NW 4.6 mph - N/A   Mostly Cloudy
1:56 AM 42.6 °F - 42.1 °F 98% 30.18 in 8.0 mi Calm Calm - N/A   Mostly Cloudy
2:56 AM 42.3 °F - 41.5 °F 97% 30.17 in 8.0 mi Calm Calm - N/A   Mostly Cloudy
3:56 AM 43.2 °F 41.5 °F 42.1 °F 96% 30.17 in 10.0 mi NNW 3.5 mph - N/A   Overcast
4:56 AM 44.4 °F 41.2 °F 42.3 °F 92% 30.16 in 10.0 mi North 5.8 mph - N/A   Mostly Cloudy
5:56 AM 45.5 °F 43.2 °F 42.4 °F 89% 30.15 in 10.0 mi NNE 4.6 mph - N/A   Overcast
6:56 AM 42.6 °F 39.9 °F 41.0 °F 94% 30.14 in 10.0 mi NNE 4.6 mph - N/A   Mostly Cloudy
7:56 AM 45.1 °F 42.8 °F 43.9 °F 95% 30.16 in 10.0 mi North 4.6 mph - N/A   Overcast
8:56 AM 48.0 °F - 45.0 °F 89% 30.19 in 10.0 mi North 4.6 mph - N/A   Overcast
9:56 AM 50.2 °F - 46.4 °F 87% 30.17 in 10.0 mi NE 8.1 mph - N/A   Overcast
10:56 AM 54.9 °F - 49.1 °F 81% 30.14 in 10.0 mi East 11.5 mph 18.4 mph N/A   Mostly Cloudy
11:36 AM 57.2 °F - 50.0 °F 77% 30.14 in 10.0 mi East 12.7 mph 18.4 mph N/A   Mostly Cloudy
11:56 AM 56.1 °F - 49.3 °F 78% 30.14 in 10.0 mi East 11.5 mph - N/A   Overcast
12:56 PM 57.2 °F - 49.3 °F 75% 30.13 in 10.0 mi ENE 10.4 mph - N/A   Overcast
1:56 PM 56.1 °F - 48.4 °F 75% 30.13 in 10.0 mi ENE 10.4 mph - N/A   Overcast
2:56 PM 55.8 °F - 48.7 °F 77% 30.11 in 10.0 mi ENE 13.8 mph - N/A   Overcast
3:56 PM 54.9 °F - 48.4 °F 79% 30.09 in 10.0 mi ENE 12.7 mph - N/A   Overcast
4:56 PM 54.3 °F - 49.3 °F 83% 30.06 in 10.0 mi ENE 12.7 mph - N/A   Overcast
5:56 PM 54.1 °F - 49.5 °F 84% 30.08 in 10.0 mi ENE 12.7 mph - N/A   Overcast
6:36 PM 53.6 °F - 51.8 °F 94% 30.06 in 3.0 mi ENE 11.5 mph - N/A   Light Drizzle
7:40 PM 53.6 °F - 51.8 °F 94% 30.05 in 2.5 mi East 12.7 mph - N/A   Light Drizzle
7:56 PM 53.2 °F - 51.8 °F 95% 30.04 in 2.5 mi East 11.5 mph 20.7 mph 0.00 in   Light Drizzle
8:34 PM 53.6 °F - 51.8 °F 94% 30.02 in 1.2 mi East 16.1 mph 20.7 mph N/A Rain Light Rain
8:56 PM 53.4 °F - 52.5 °F 97% 30.02 in 1.5 mi East 12.7 mph - 0.04 in Rain Light Rain
9:56 PM 53.6 °F - 52.7 °F 97% 29.99 in 3.0 mi East 9.2 mph - 0.05 in Rain Light Rain
10:12 PM 53.6 °F - 53.6 °F 100% 29.98 in 2.0 mi East 10.4 mph 17.3 mph N/A Rain Light Rain
10:56 PM 53.8 °F - 53.2 °F 98% 29.96 in 2.0 mi ENE 9.2 mph - 0.11 in Rain Light Rain
11:56 PM 54.0 °F - 53.4 °F 98% 29.93 in 2.0 mi ENE 8.1 mph - 0.21 in Rain Rain